Tracking 29892 objects as of 21-Nov-2024
HD Live streaming from Space Station
objects crossing your sky now

FLOCK 4Q 27

Track FLOCK 4Q 27 now!
10-day predictions
FLOCK 4Q 27 is classified as:


NORAD ID: 58282
Int'l Code: 2023-174AC
Perigee: 486.6 km
Apogee: 498.8 km
Inclination: 97.4 °
Period: 94.3 minutes
Semi major axis: 6863 km
RCS: Unknown
Launch date: November 11, 2023
Source: United States (US)
Launch site: AIR FORCE WESTERN TEST RANGE (AFWTR)
Your satellite tracking list
Your tracking list is empty




NASA's NSSDC Master Catalog

Two Line Element Set (TLE):
1 58282U 23174AC  24325.89893250  .00019444  00000-0  74042-3 0  9994
2 58282  97.4379  39.1752 0008842  48.6949 311.5050 15.26736119 57564
Source of the keplerian elements: AFSPC